(341990) = 2008 RT2

Discovered at Kitt Peak on 2008-09-02 by Spacewatch.

Orbit

Orbit type: Main Belt

Note: WebGL enabled browser required.

epoch2023-09-13.0
epoch JD2460200.5
perihelion date2023-03-09.88231
perihelion JD2460013.38231
argument of perihelion (°)309.95366
ascending node (°)342.70619
inclination (°)8.45702
eccentricity0.2083988
perihelion distance (AU)1.9050441
Tisserand w.r.t. Jupiter3.5
ΔV w.r.t. Earth (km/sec)9.0
semimajor axis (AU)2.4065704
mean anomaly (°)49.39930
mean daily motion (°/day)0.26400130
aphelion distance (AU)2.908
period (years)3.73
P-vector [x]0.38773732
P-vector [y]-0.79451424
P-vector [z]-0.46734023
Q-vector [x]0.92073254
Q-vector [y]0.30978496
Q-vector [z]0.23724431
absolute magnitude17.18
phase slope0.15
uncertainty0
referenceMPO 779445
observations used293
oppositions10
arc length (days)7062
first opposition used2004
last opposition used2023
residual rms (arc-secs)0.81
perturbers coarse indicatorM-v
perturbers precise indicator003Ek
first observation date used2004-07-12.0
last observation date used2023-11-12.0
computer nameMPCLINUX
JD of orbit computation2456225.652045
perihelion JD uncertainty (days)2.0564E-03
argument of perihelion uncertainty (°)4.1756E-04
ascending node uncertainty (°)4.6735E-05
inclination uncertainty (°)1.5315E-05
eccentricity uncertainty 1.0969E-06
perihelion distance uncertainty (AU)2.1730E-06
Minimum Orbit Intersection Distances (in AU)
for orbit epoch: 2460200.5, reference: E2023-VN0
Mercury1.45314
Venus1.18033
Earth0.90154
Mars0.50738
Jupiter2.33587
Saturn6.20394
Uranus15.684
Neptune27.2302

Observations

294 total observations over interval: 2004 07 12.46818 – 2023 11 12.255218
These data are available for download (format description).

Date (UT) J2000 RA J2000 Dec Magn Location Ref
2004 07 12.46818 20 20 37.39 -33 15 44.9 18.6 R E12 – Siding Spring Survey MPS 270244
2004 07 12.46931 20 20 37.33 -33 15 45.0 18.4 R E12 – Siding Spring Survey MPS 270244
2004 07 12.48074 20 20 36.63 -33 15 44.2 18.9 R E12 – Siding Spring Survey MPS 270244
2004 07 12.48186 20 20 36.54 -33 15 44.5 18.7 R E12 – Siding Spring Survey MPS 270244
2004 07 12.49330 20 20 35.80 -33 15 43.8 18.9 R E12 – Siding Spring Survey MPS 270244
2004 07 12.49442 20 20 35.73 -33 15 43.7 18.6 R E12 – Siding Spring Survey MPS 270244
2004 07 12.50586 20 20 35.07 -33 15 43.2 18.1 R E12 – Siding Spring Survey MPS 270244
2004 07 12.50700 20 20 34.99 -33 15 43.3 17.9 R E12 – Siding Spring Survey MPS 270244
2004 08 07.69014 19 54 17.84 -31 37 16.0 18.6 R E12 – Siding Spring Survey MPS 270244
2004 08 07.69969 19 54 17.36 -31 37 10.7 19.0 R E12 – Siding Spring Survey MPS 270244
2004 08 07.70926 19 54 16.90 -31 37 07.2 19.3 R E12 – Siding Spring Survey MPS 270244
2004 08 07.71881 19 54 16.31 -31 37 03.1 19.8 R E12 – Siding Spring Survey MPS 270244
2007 02 09.41301 11 38 21.53 +02 33 58.7   691 – Steward Observatory, Kitt Peak-Spacewatch MPS 270244
2007 02 09.45151 11 38 20.06 +02 34 00.7   691 – Steward Observatory, Kitt Peak-Spacewatch MPS 270244
2007 02 09.46911 11 38 19.40 +02 34 01.5   691 – Steward Observatory, Kitt Peak-Spacewatch MPS 270244
2007 02 21.38695 11 29 24.01 +02 53 56.7 21.4 V 691 – Steward Observatory, Kitt Peak-Spacewatch MPS 270244
2007 02 21.40536 11 29 23.00 +02 53 59.9 21.4 V 691 – Steward Observatory, Kitt Peak-Spacewatch MPS 270244
2007 02 21.42697 11 29 21.83 +02 54 02.5 21.3 V 691 – Steward Observatory, Kitt Peak-Spacewatch MPS 270244
2007 02 21.45884 11 29 20.11 +02 54 06.8 20.9 V G96 – Mt. Lemmon Survey MPS 270244
2007 02 21.46368 11 29 19.86 +02 54 07.8 20.9 V G96 – Mt. Lemmon Survey MPS 270244
2007 02 21.46847 11 29 19.57 +02 54 08.0 20.6 V G96 – Mt. Lemmon Survey MPS 270244
2007 02 21.47330 11 29 19.35 +02 54 09.3 20.3 V G96 – Mt. Lemmon Survey MPS 270244
2007 03 10.31213 11 12 36.14 +03 43 17.2 20.3 V G96 – Mt. Lemmon Survey MPS 270244
2007 03 10.32293 11 12 35.46 +03 43 19.2 19.9 V G96 – Mt. Lemmon Survey MPS 270244
2007 03 10.33377 11 12 34.74 +03 43 21.4 20.4 V G96 – Mt. Lemmon Survey MPS 270244
2007 03 10.34455 11 12 34.05 +03 43 23.7 20.4 V G96 – Mt. Lemmon Survey MPS 270244
2008 09 02.26856 00 06 31.61 +03 25 33.9 19.6 V 691 – Steward Observatory, Kitt Peak-Spacewatch MPS 255958
2008 09 02.28612 00 06 30.61 +03 25 34.5 19.7 V 691 – Steward Observatory, Kitt Peak-Spacewatch MPS 255958
2008 09 02.30368 00 06 29.58 +03 25 35.1 19.6 V 691 – Steward Observatory, Kitt Peak-Spacewatch MPS 255958
2008 09 03.25239 00 05 36.84 +03 26 03.4 19.7 V 691 – Steward Observatory, Kitt Peak-Spacewatch MPS 255958
2008 09 03.27013 00 05 35.83 +03 26 04.1 19.7 V 691 – Steward Observatory, Kitt Peak-Spacewatch MPS 255958
2008 09 03.29131 00 05 34.50 +03 26 04.8 19.5 V 691 – Steward Observatory, Kitt Peak-Spacewatch MPS 255958
2008 09 06.29180 00 02 40.44 +03 26 41.2   691 – Steward Observatory, Kitt Peak-Spacewatch MPS 255958
2008 09 06.30939 00 02 39.34 +03 26 41.2   691 – Steward Observatory, Kitt Peak-Spacewatch MPS 255958
2008 09 06.32697 00 02 38.25 +03 26 41.4   691 – Steward Observatory, Kitt Peak-Spacewatch MPS 255958
2008 09 21.29669 23 46 48.64 +03 14 06.7 19.1 V G96 – Mt. Lemmon Survey MPS 256808
2008 09 21.30444 23 46 48.10 +03 14 05.9 19.0 V G96 – Mt. Lemmon Survey MPS 256808
2008 09 21.31229 23 46 47.60 +03 14 05.2 19.0 V G96 – Mt. Lemmon Survey MPS 256808
2008 09 21.32006 23 46 47.06 +03 14 04.4 19.1 V G96 – Mt. Lemmon Survey MPS 256808
2008 09 24.22978 23 43 43.33 +03 09 36.7 19.8   704 – Lincoln Laboratory ETS, New Mexico MPS 256808
2008 09 24.24186 23 43 42.55 +03 09 36.5 20.2   704 – Lincoln Laboratory ETS, New Mexico MPS 256808
2008 09 24.25396 23 43 41.73 +03 09 35.0 19.9   704 – Lincoln Laboratory ETS, New Mexico MPS 256808
2008 09 24.26605 23 43 40.97 +03 09 33.0 20.4   704 – Lincoln Laboratory ETS, New Mexico MPS 256808
2008 09 24.27812 23 43 40.17 +03 09 31.9 20.4   704 – Lincoln Laboratory ETS, New Mexico MPS 256808
2008 09 28.27284 23 39 37.22 +03 02 59.5 19.2 V G96 – Mt. Lemmon Survey MPS 258053
2008 09 28.27949 23 39 36.82 +03 02 58.8 19.2 V G96 – Mt. Lemmon Survey MPS 258053
2008 09 28.28610 23 39 36.43 +03 02 58.0 19.2 V G96 – Mt. Lemmon Survey MPS 258053
2008 09 28.29263 23 39 36.03 +03 02 57.5 19.1 V G96 – Mt. Lemmon Survey MPS 258053
2008 09 29.22706 23 38 41.39 +03 01 24.0 19.4   704 – Lincoln Laboratory ETS, New Mexico MPS 258053
2008 09 29.23946 23 38 40.66 +03 01 22.7 19.4   704 – Lincoln Laboratory ETS, New Mexico MPS 258053
2008 09 29.25183 23 38 39.89 +03 01 22.0 19.5   704 – Lincoln Laboratory ETS, New Mexico MPS 258053
2008 09 29.26421 23 38 39.11 +03 01 20.4 19.6   704 – Lincoln Laboratory ETS, New Mexico MPS 258053
2008 09 29.27660 23 38 38.38 +03 01 19.3 20.0   704 – Lincoln Laboratory ETS, New Mexico MPS 258053
2012 10 18.26369 02 19 02.28 +25 36 29.4 20.5 V G96 – Mt. Lemmon Survey MPS 435196
2012 10 18.27024 02 19 01.81 +25 36 28.7 20.5 V G96 – Mt. Lemmon Survey MPS 435196
2012 10 18.27677 02 19 01.38 +25 36 28.4 20.3 V G96 – Mt. Lemmon Survey MPS 435196
2012 10 18.28331 02 19 00.91 +25 36 27.6 20.4 V G96 – Mt. Lemmon Survey MPS 435196
2012 10 20.24958 02 16 48.50 +25 32 40.7 20.3 V G96 – Mt. Lemmon Survey MPS 437930
2012 10 20.25331 02 16 48.28 +25 32 40.0 20.1 V G96 – Mt. Lemmon Survey MPS 437930
2012 10 20.25711 02 16 48.00 +25 32 39.7 20.2 V G96 – Mt. Lemmon Survey MPS 437930
2012 10 20.26088 02 16 47.74 +25 32 39.1 20.3 V G96 – Mt. Lemmon Survey MPS 437930
2012 10 23.33322 02 13 17.58 +25 25 11.9 20.3 V G96 – Mt. Lemmon Survey MPS 437930
2012 10 23.34079 02 13 17.00 +25 25 10.6 20.3 V G96 – Mt. Lemmon Survey MPS 437930
2012 10 23.34831 02 13 16.50 +25 25 09.1 20.3 V G96 – Mt. Lemmon Survey MPS 437930
2012 10 23.35594 02 13 15.92 +25 25 08.0 20.1 V G96 – Mt. Lemmon Survey MPS 437930
2012 10 24.527312 02 11 55.266 +25 21 48.90 20.2 i F51 – Pan-STARRS 1, Haleakala MPS 437930
2012 10 24.541037 02 11 54.274 +25 21 46.35 20.1 i F51 – Pan-STARRS 1, Haleakala MPS 437930
2012 11 02.40844 02 01 52.75 +24 49 10.3 20.7 V G96 – Mt. Lemmon Survey MPS 441643
2012 11 02.41562 02 01 52.28 +24 49 09.1 19.5 V G96 – Mt. Lemmon Survey MPS 441643
2012 11 02.42263 02 01 51.74 +24 49 07.1 20.2 V G96 – Mt. Lemmon Survey MPS 441643
2012 11 02.42969 02 01 51.24 +24 49 05.3 21.3 V G96 – Mt. Lemmon Survey MPS 441643
2015 06 08.36175 15 52 27.538 -37 26 15.79 19.0 w F51 – Pan-STARRS 1, Haleakala MPS 611425
2015 06 08.37040 15 52 26.983 -37 26 13.84 19.0 w F51 – Pan-STARRS 1, Haleakala MPS 611425
2015 06 08.37902 15 52 26.419 -37 26 11.86 18.9 w F51 – Pan-STARRS 1, Haleakala MPS 611425
2015 06 08.38767 15 52 25.859 -37 26 09.77 18.9 w F51 – Pan-STARRS 1, Haleakala MPS 611425
2016 11 23.35003 04 14 01.98 +34 36 49.9 20.6 V G96 – Mt. Lemmon Survey MPS 747148
2016 11 23.35594 04 14 01.55 +34 36 48.7 20.4 V G96 – Mt. Lemmon Survey MPS 747148
2016 11 23.36198 04 14 01.04 +34 36 48.0 21.0 V G96 – Mt. Lemmon Survey MPS 747148
2016 11 23.36806 04 14 00.62 +34 36 47.2 20.7 V G96 – Mt. Lemmon Survey MPS 747148
2016 12 05.16973 03 59 42.71 +33 59 53.3 21.1 V G96 – Mt. Lemmon Survey MPS 751674
2016 12 05.17506 03 59 42.41 +33 59 52.3 21.1 V G96 – Mt. Lemmon Survey MPS 751674
2016 12 05.18038 03 59 41.99 +33 59 51.5 20.7 V G96 – Mt. Lemmon Survey MPS 751674
2016 12 05.18570 03 59 41.59 +33 59 51.2 20.8 V G96 – Mt. Lemmon Survey MPS 751674
2016 12 06.28547 03 58 26.01 +33 55 19.1 21.4 V G96 – Mt. Lemmon Survey MPS 751674
2016 12 06.29172 03 58 25.54 +33 55 17.9 21.3 V G96 – Mt. Lemmon Survey MPS 751674
2016 12 06.29824 03 58 25.11 +33 55 16.4 21.3 V G96 – Mt. Lemmon Survey MPS 751674
2016 12 06.30471 03 58 24.67 +33 55 14.4 21.0 V G96 – Mt. Lemmon Survey MPS 751674
2016 12 08.34583 03 56 08.09 +33 46 27.0 21.0 V G96 – Mt. Lemmon Survey MPS 751674
2016 12 08.35347 03 56 07.59 +33 46 25.3 20.6 V G96 – Mt. Lemmon Survey MPS 751674
2016 12 08.36183 03 56 07.03 +33 46 22.7 20.4 V G96 – Mt. Lemmon Survey MPS 751674
2016 12 08.36881 03 56 06.58 +33 46 20.1   G96 – Mt. Lemmon Survey MPS 751674
